Regional Weather Roundup
Issued by NWS Jackson, KY

Home | Current Version | Previous Version | Graphics & Text | Print | Product List | Glossary On
Versions: 1 2 3 4 5 6 7 8 9 10 11 12 13 14 15 16 17 18 19 20 21 22 23 24 25 26 27
000
ASUS43 KJKL 310510
RWRJKL

EAST KENTUCKY HOURLY WEATHER ROUNDUP
NATIONAL WEATHER SERVICE JACKSON KY
100 AM EDT TUE MAY 31 2016

NOTE: "FAIR" INDICATES FEW OR NO CLOUDS BELOW 12,000 FEET WITH
NO SIGNIFICANT WEATHER AND/OR OBSTRUCTIONS TO VISIBILITY.

* THESE REPORTS ARE NOT UNDER NWS QUALITY CONTROL AND MAY NOT
  REPORT WEATHER SUCH AS PRECIPITATION AND FOG.

KYZ079-080-083-085-087-088-110-112-115-119-120-310600
...EASTERN KENTUCKY...

CITY           SKY/WX    TMP DP  RH WIND       PRES   REMARKS
JACKSON        CLEAR     70  59  68 CALM      30.02F
LONDON         CLEAR     65  61  87 CALM      30.01F
SOMERSET*      CLEAR     63  63 100 CALM      30.02S
MONTICELLO*    CLEAR     63  62  97 CALM      30.02F
WILLIAMSBURG*  CLEAR     61  61 100 CALM      30.01F
MIDDLESBORO*   CLEAR     64  63  97 CALM      30.02S
HARLAN APT*      N/A    N/A N/A N/A CALM      30.03S
HAZARD APT*    CLEAR     64  64 100 CALM      30.01
BLACK MTN*       N/A     61  59  94 N3          N/A
PIKE CO APT*     N/A     71  61  71 CALM      30.02S
BIG SANDY APT* CLEAR     65  63  93 CALM      30.01F
MOREHEAD APT*  CLEAR     66  63  88 CALM      30.03S
ASHLAND*       CLEAR     63  61  94 CALM      29.97F
$$

KYZ035-036-041-042-044-050-067-078-099-310600
...CENTRAL KENTUCKY...

CITY           SKY/WX    TMP DP  RH WIND       PRES   REMARKS
MT STERLING*   CLEAR     61  61 100 CALM      30.03R
FLEMING/MASON* CLEAR     66  62  87 CALM      30.01F
DANVILLE*      CLEAR     63  61  94 CALM      30.02S
RICHMOND*      CLEAR     64  61  88 CALM      30.00F
LEXINGTON      CLEAR     66  60  81 CALM      30.01S
FRANKFORT      PTCLDY    65  59  81 CALM      29.99S
LOUISVILLE     MOCLDY    73  60  63 CALM      29.99R
LEBANON*         N/A     66  61  82 CALM      30.00F
GLASGOW*       CLEAR     65  65 100 CALM      29.99S
BOWLING GREEN  PTCLDY    69  62  78 CALM      29.98F
$$

KYZ091>093-OHZ055-061-077-WVZ005-015-034-035-042-310600
...SOUTHERN OHIO/WEST VIRGINIA...

CITY           SKY/WX    TMP DP  RH WIND       PRES   REMARKS
COVINGTON      CLOUDY    65  58  78 CALM      30.00R
COLUMBUS       CLEAR     65  59  81 CALM      29.98S
DAYTON         PTCLDY    68  57  68 SW3       30.00S
WILMINGTON     PTCLDY    67  60  78 S3        30.00R
HUNTINGTON       N/A     63  60  90 E5        29.98F
CHARLESTON       N/A     65  61  87 CALM      29.99F
PINEVILLE*       N/A     62  58  88 MISG      30.08F FOG
BECKLEY          N/A     63  59  87 CALM      30.06F
BLUEFIELD        N/A     64  57  78 CALM      30.08F
LOGAN CO APT*    N/A     68  63  83 CALM      30.02S
$$

VAZ002-007-008-TNZ017-027-036-066-071-310600
...SOUTHWEST VIRGINIA/EAST TENNESSEE...

CITY           SKY/WX    TMP DP  RH WIND       PRES   REMARKS
WISE*            N/A     64  54  68 CALM      30.08F
JONESVILLE*      N/A     63  61  94 CALM      30.03S
ABINGDON*        N/A     66  63  90 CALM      30.04F
BRISTOL        CLEAR     62  60  93 CALM      30.01F
SEVIERVILLE*   CLEAR     64  61  88 CALM      29.99S
KNOXVILLE      CLEAR     69  66  90 CALM      29.98
OAK RIDGE      CLEAR     69  64  84 CALM      30.00S
CROSSVILLE     CLEAR     64  59  83 CALM      30.04S
NASHVILLE      PTCLDY    70  59  68 CALM      29.98F
$$

...KEY TO REMARKS...
VSB - VISIBILITY IN MILES
WCI - WIND CHILL INDEX
HX  - HEAT INDEX

$$




USA.gov is the U.S. government's official web portal to all federal, state and local government web resources and services.